Temperature
29 28 28 29 31 31 31 31 31 32 33 33 32 32 32 32 32 31 30 29 27 26 24 23 22 21 20 19 19 18 18 18 18 18 18 18 18 18 18 18 18 18 18 18
28 28 30 31 32 32 31 31 31 32 33 33 32 32 32 32 32 31 30 29 28 26 24 22 21 20 20 19 18 18 18 18 18 18 18 18 18 18 18 18 18 18 18 18
28 30 31 31 31 31 31 31 31 31 32 32 31 31 31 31 31 31 30 29 28 26 24 22 21 20 19 19 18 18 18 18 18 18 17 17 17 17 17 17 18 18 18 18
29 31 31 31 31 31 30 32 32 31 31 31 31 29 29 30 29 30 30 29 28 26 24 22 21 20 19 19 18 18 18 18 18 18 17 17 17 17 18 18 18 17 17 18
29 31 31 30 31 31 31 32 32 31 30 30 31 29 29 29 28 29 29 29 28 26 24 23 21 20 20 19 18 18 18 18 18 17 17 17 17 17 18 17 17 17 17 17
31 32 32 31 32 32 32 31 31 30 30 28 29 28 28 28 28 29 29 29 28 26 25 23 22 20 20 19 19 18 18 18 18 17 17 17 17 17 17 17 17 17 17 17
29 31 32 32 31 31 31 30 28 27 27 27 28 28 29 30 30 29 29 29 28 26 25 23 22 21 20 19 19 18 18 18 17 17 17 17 17 17 17 17 17 17 17 17
28 29 31 32 31 30 30 30 27 26 25 26 26 26 29 31 30 30 29 28 27 26 25 23 22 21 20 19 19 18 18 18 17 17 17 17 17 17 17 18 17 17 17 17
29 29 31 32 32 31 30 30 30 29 27 26 26 26 29 30 30 30 29 28 27 26 25 24 22 21 20 20 19 18 18 18 18 17 17 17 17 17 17 17 17 17 17 17
30 29 30 32 32 31 31 31 30 28 26 25 26 26 26 27 29 29 29 28 27 26 25 24 23 22 21 20 19 18 18 18 18 17 17 17 17 17 17 17 17 17 17 17
30 29 29 30 30 30 30 30 29 29 28 27 25 25 26 26 27 28 29 28 28 26 25 24 23 22 21 20 19 18 18 17 17 17 17 17 17 17 17 17 17 17 17 17
30 29 28 29 31 31 30 30 29 27 27 27 26 26 27 26 26 28 28 28 27 26 26 24 23 22 21 20 19 19 18 18 17 17 17 17 17 17 17 17 17 17 17 17
29 28 27 27 28 29 29 29 29 29 28 27 27 26 27 26 26 27 27 27 27 26 25 24 23 22 21 20 20 19 18 18 17 17 17 17 17 17 17 17 17 17 17 17
29 28 27 26 26 26 27 28 29 28 28 27 27 27 26 26 26 26 26 26 26 26 25 24 23 22 21 20 20 19 19 18 18 17 17 17 17 17 17 17 17 17 16 16
29 27 27 27 27 27 27 28 28 28 28 27 27 26 26 25 25 25 26 26 26 25 25 24 23 22 21 20 20 19 19 18 18 17 17 17 17 17 17 17 17 17 16 16
27 26 26 26 27 27 27 27 28 28 28 28 27 26 26 26 26 25 26 26 25 25 24 23 22 22 21 21 20 19 19 19 18 18 18 17 17 17 17 17 17 16 16 16
27 26 25 25 26 26 25 27 27 27 28 27 25 25 25 25 25 25 25 25 24 23 23 23 22 21 21 20 20 20 19 19 18 18 18 17 17 17 17 17 17 16 16 16
25 24 24 25 25 23 25 27 27 26 26 26 26 25 25 24 24 24 24 23 23 22 22 22 22 21 21 20 20 20 19 19 18 18 18 18 17 17 17 17 17 17 17 16
25 24 24 24 23 24 25 26 26 25 24 25 24 24 24 23 23 22 22 21 21 21 21 21 21 21 20 20 20 19 19 19 18 18 18 18 17 17 17 17 17 17 16 16
25 24 23 23 22 22 22 25 25 25 23 23 23 23 22 22 22 21 20 20 20 20 20 20 20 20 20 20 20 19 19 19 19 18 18 18 18 17 17 17 17 17 16 16
23 23 23 22 22 22 22 24 25 22 21 21 21 21 21 20 20 19 19 19 19 19 19 19 19 19 19 19 19 19 19 19 19 19 18 18 18 17 17 17 17 17 16 16
23 22 22 22 21 20 21 21 21 20 20 20 20 20 19 19 18 18 17 17 17 17 18 18 18 18 19 19 19 19 19 19 19 18 18 18 18 17 17 17 17 16 16 16
22 22 22 21 20 19 19 18 18 19 19 19 19 18 18 18 17 16 16 16 16 16 16 17 17 17 18 18 18 18 18 18 18 18 18 18 17 17 17 17 16 16 16 15
20 21 21 20 19 19 18 18 18 18 18 18 18 17 17 16 16 15 15 15 15 15 15 15 16 16 16 17 17 17 17 18 18 18 17 17 17 17 16 16 16 16 15 15
20 20 20 19 19 19 18 17 17 17 17 17 16 16 15 15 15 14 14 14 13 14 14 14 14 14 15 15 16 16 16 17 17 17 17 16 16 16 16 16 15 15 15 15
19 19 19 18 18 18 16 16 16 16 15 15 15 15 14 14 13 13 13 13 13 13 13 13 13 13 14 14 15 15 15 16 16 16 16 16 15 15 15 15 15 14 14 14
Wind_Speed
17 16 17 19 20 19 16 14 12 10 7 9 10 10 9 10 9 8 9 9 10 12 14 14 15 14 14 14 14 13 13 12 10 8 8 7 6 5 5 5 9 10 10 9
17 21 21 20 18 17 17 15 12 10 8 7 8 11 10 8 8 8 8 10 11 13 14 14 14 14 15 14 14 14 13 13 12 8 7 6 6 5 6 6 8 10 10 9
23 18 20 20 18 16 15 14 13 11 9 9 10 13 10 8 6 6 8 9 11 14 15 16 15 14 15 15 16 15 14 14 12 10 8 7 6 5 6 7 7 8 9 9
20 21 15 17 17 15 14 14 13 12 11 10 10 9 7 7 7 8 8 10 11 13 15 15 16 15 15 16 15 14 14 13 12 12 11 12 10 9 8 7 7 7 8 8
18 20 17 16 16 15 14 12 11 12 13 14 12 9 6 6 7 9 10 10 11 14 15 15 16 15 15 16 15 14 14 13 12 12 12 11 9 8 7 7 10 9 7 7
19 17 17 16 15 14 13 12 11 11 12 14 12 10 6 5 6 6 7 9 10 13 14 14 14 13 13 14 14 14 14 13 13 12 11 11 10 9 9 9 10 9 7 6
19 18 17 15 15 14 13 11 9 9 9 10 8 8 4 7 7 5 5 7 9 12 13 14 15 14 14 15 14 14 14 13 13 13 11 11 10 9 10 10 10 9 8 7
17 17 18 16 15 12 14 15 11 8 7 5 5 6 3 6 8 7 7 7 8 11 13 14 15 15 15 16 14 14 14 13 14 13 11 10 10 8 8 9 9 8 7 8
12 15 16 16 14 15 14 14 14 12 9 6 5 5 3 4 6 8 9 8 7 9 12 13 15 15 15 15 15 15 14 14 13 13 11 10 10 9 9 9 8 7 6 8
10 8 12 14 13 16 15 13 10 10 6 7 5 4 1 1 2 4 7 8 8 8 11 13 13 14 13 13 13 13 14 14 13 12 11 11 10 9 8 8 8 8 7 8
14 9 10 12 14 14 14 14 11 9 7 7 5 2 0 2 2 2 4 7 8 8 11 12 12 13 13 14 14 13 13 13 12 12 11 11 11 10 9 8 8 7 7 9
13 9 9 12 11 11 12 12 10 8 8 8 6 2 3 2 1 0 4 6 7 6 9 12 13 13 13 13 14 13 13 13 12 11 11 10 10 10 10 9 9 9 8 9
9 7 9 10 8 8 9 11 11 9 8 9 8 2 2 4 2 3 4 5 5 6 8 10 12 12 12 12 12 12 13 13 13 13 12 11 11 11 10 10 10 9 9 9
6 7 10 9 6 6 10 11 11 10 9 9 7 3 3 2 3 4 3 3 4 5 8 9 10 10 10 10 11 12 12 13 13 12 13 12 11 11 11 10 10 10 10 9
7 9 10 8 7 8 11 12 11 11 11 9 6 4 1 2 2 1 1 2 4 5 7 8 9 8 10 11 11 11 12 12 12 13 12 11 11 10 10 10 10 10 10 11
5 5 6 7 8 8 12 13 12 11 10 8 6 3 1 1 2 1 2 3 3 2 4 6 7 8 9 10 11 11 11 12 12 13 13 12 12 11 11 10 10 10 10 10
7 6 7 9 9 8 11 10 9 7 4 3 2 0 2 2 3 3 2 4 5 5 3 3 5 5 7 8 10 11 11 11 12 12 12 12 12 12 12 13 12 11 11 10
5 4 5 8 7 10 5 2 2 3 1 3 2 4 5 4 5 5 5 5 5 5 5 3 0 3 5 6 8 9 11 12 13 13 12 12 13 13 12 12 12 11 10 10
6 6 6 6 8 7 3 2 2 1 2 6 5 5 4 4 4 6 9 8 6 6 5 4 2 2 3 5 7 8 10 12 13 14 13 13 13 13 12 12 11 10 10 10
7 6 7 6 7 6 1 3 1 2 1 8 7 6 4 4 2 3 8 8 8 7 6 5 4 2 0 2 5 7 9 10 12 12 12 12 11 12 12 11 10 10 9 9
9 8 9 8 7 3 2 4 1 3 2 7 8 7 6 5 4 4 6 6 7 7 7 7 5 3 2 1 2 5 6 7 8 9 10 10 10 10 10 9 8 8 9 9
6 6 6 6 6 2 7 5 3 5 5 5 7 6 5 5 6 6 8 8 8 8 8 8 6 5 3 2 1 3 3 4 5 6 8 9 9 10 10 9 8 8 8 8
2 1 1 2 3 6 9 7 6 6 5 5 4 5 5 6 6 7 8 8 9 8 8 8 7 7 6 5 2 0 1 2 4 5 6 6 8 7 7 8 9 8 7 8
2 4 3 5 6 8 9 7 8 7 6 6 6 5 6 6 6 8 8 8 9 9 9 8 8 7 8 7 5 3 2 1 3 5 6 6 6 6 5 5 6 6 6 7
1 2 2 4 6 6 7 8 7 7 8 10 10 9 8 8 8 8 8 9 9 9 9 8 9 9 9 9 8 7 4 2 3 4 5 6 6 6 5 5 3 4 3 2
3 2 1 2 4 4 5 6 7 8 8 9 10 10 10 10 9 9 9 10 10 10 10 10 10 11 10 10 10 9 7 5 4 4 4 5 5 6 6 7 7 11 8 10
Wind_Direction
213 223 229 232 232 244 259 269 265 257 245 243 248 252 242 227 218 204 189 179 172 167 164 161 161 163 161 161 162 165 168 166 163 168 170 169 169 167 160 156 152 160 167 164
213 224 234 241 243 243 251 264 268 268 258 253 259 262 257 232 219 211 191 179 176 164 158 161 160 164 165 165 168 171 174 171 171 173 172 171 164 171 173 169 159 166 168 166
220 225 224 237 246 244 246 254 260 263 264 261 261 264 261 245 223 210 200 185 180 165 162 165 168 170 171 173 175 177 176 174 174 171 171 172 163 178 174 165 167 172 167 172
229 237 230 229 237 242 244 250 261 267 265 266 257 265 248 226 216 218 209 185 179 166 164 166 171 174 178 178 177 174 175 174 174 175 180 178 177 182 180 173 170 170 172 173
225 232 233 233 236 235 244 257 260 265 268 269 263 260 250 197 216 218 203 186 176 163 165 167 172 174 177 178 177 176 174 174 177 184 186 184 183 182 176 172 165 170 175 176
236 225 229 234 235 236 240 249 255 257 262 259 260 261 246 193 186 203 198 170 161 158 160 162 165 166 172 175 175 177 175 176 180 185 186 189 184 179 178 174 167 173 173 180
230 232 222 226 231 223 228 235 240 242 242 257 284 259 231 159 156 159 170 162 157 154 157 161 164 168 171 173 174 173 174 178 181 184 186 190 186 181 177 176 174 176 174 177
217 225 219 215 225 223 222 230 236 245 252 263 269 262 259 144 135 133 139 150 146 152 159 163 168 170 173 174 173 172 172 177 180 181 181 184 184 182 180 181 176 180 179 176
218 222 215 208 215 229 223 231 240 249 260 259 238 243 200 143 128 125 131 140 156 159 158 163 169 171 174 174 173 176 175 177 179 179 178 181 188 188 180 176 176 179 177 167
246 233 215 201 208 225 235 231 242 253 266 272 259 241 320 6 121 138 135 148 160 157 156 161 167 168 171 170 170 172 175 176 177 177 179 184 190 191 174 175 186 179 173 160
233 234 219 205 208 217 221 230 239 255 262 267 268 258 215 313 279 170 140 137 147 160 159 160 164 164 166 167 169 171 172 173 176 180 182 182 184 183 175 179 182 175 165 161
221 230 227 220 216 224 225 232 235 248 265 276 279 265 180 124 278 317 109 114 134 159 158 159 162 163 165 168 169 171 173 175 177 179 180 182 178 178 180 181 178 172 168 167
214 230 226 223 222 226 232 229 234 236 249 259 263 219 163 96 29 22 65 94 126 152 150 153 156 162 166 168 168 171 175 177 179 179 181 183 182 182 183 181 175 171 169 171
216 227 237 226 215 230 238 238 238 240 246 255 265 246 185 95 27 28 47 75 114 143 146 150 153 162 167 165 168 173 178 179 179 178 181 182 183 182 182 179 173 171 170 175
216 226 238 232 221 244 258 253 242 247 253 261 274 279 16 75 73 4 341 74 113 140 151 153 157 167 169 169 171 178 179 178 177 177 182 180 180 178 176 176 174 173 175 183
205 248 250 250 236 239 256 256 244 245 255 258 256 274 142 117 94 10 6 47 56 98 135 147 158 170 177 177 179 183 182 178 176 179 183 178 179 179 179 177 177 177 181 185
199 225 244 251 244 246 245 256 262 260 270 295 280 7 92 63 53 34 37 40 39 24 51 119 154 169 181 185 184 184 183 179 179 183 183 179 180 181 182 185 183 184 186 188
218 237 249 255 251 242 242 239 237 260 322 30 55 67 49 42 30 17 29 44 34 20 18 20 70 178 182 188 191 190 186 184 185 187 186 183 185 186 185 188 187 187 187 191
202 219 240 252 251 244 231 242 199 171 41 33 35 59 33 12 38 35 31 24 14 15 7 349 317 235 189 192 193 194 193 191 191 192 191 188 188 188 188 192 190 188 189 193
198 198 230 240 250 250 293 346 34 107 122 35 40 49 31 3 352 34 28 13 5 8 358 344 333 335 300 208 195 193 196 194 197 195 191 187 187 190 193 193 190 190 191 194
198 203 227 242 248 236 352 322 310 215 92 30 33 27 22 23 17 13 21 16 9 7 356 347 347 358 3 334 190 191 196 199 200 195 189 186 186 187 186 186 186 184 189 192
209 208 216 237 244 228 15 8 37 75 69 44 37 32 29 43 33 26 20 14 11 5 359 358 5 11 16 16 124 185 201 198 187 184 181 181 179 190 190 180 181 182 186 192
271 317 128 79 92 81 66 65 64 66 65 53 43 38 40 45 34 30 28 22 16 10 10 12 18 19 17 16 32 191 235 190 174 171 167 165 171 182 176 173 178 182 186 197
11 39 92 101 105 90 78 69 57 53 54 45 47 52 59 57 50 43 36 30 26 22 22 23 29 31 22 14 20 21 9 120 147 158 161 158 160 165 159 159 174 182 190 198
36 62 83 118 117 97 72 65 63 57 52 53 55 60 66 69 60 54 45 40 38 35 34 35 39 37 28 20 22 21 23 67 123 133 137 141 141 137 123 106 88 137 115 153
10 68 140 114 109 103 92 74 70 73 70 64 58 59 61 62 61 58 54 50 47 44 41 43 43 41 34 30 28 25 28 54 90 109 120 136 135 127 125 117 94 64 71 69
Height
1446 1449 1448 1442 1435 1434 1432 1433 1434 1428 1420 1424 1428 1430 1428 1429 1432 1436 1441 1446 1451 1456 1462 1467 1471 1476 1480 1484 1487 1491 1495 1500 1505 1509 1513 1517 1521 1525 1528 1531 1534 1537 1540 1543
1443 1444 1437 1431 1427 1428 1430 1434 1433 1426 1419 1423 1427 1428 1424 1425 1428 1433 1437 1442 1447 1453 1459 1465 1469 1473 1477 1480 1485 1489 1493 1498 1502 1507 1511 1515 1520 1523 1527 1530 1532 1535 1538 1541
1437 1431 1428 1428 1428 1429 1429 1432 1431 1430 1423 1421 1428 1433 1428 1425 1427 1431 1435 1439 1444 1450 1456 1462 1466 1471 1474 1478 1482 1486 1491 1495 1499 1504 1509 1514 1518 1521 1525 1527 1530 1533 1536 1539
1428 1423 1421 1424 1427 1427 1433 1424 1424 1426 1431 1434 1430 1447 1433 1426 1428 1430 1433 1437 1441 1446 1453 1458 1463 1467 1471 1475 1480 1484 1488 1492 1497 1501 1505 1509 1513 1517 1521 1524 1527 1531 1534 1537
1424 1420 1420 1424 1422 1422 1425 1420 1422 1426 1431 1435 1429 1441 1436 1426 1433 1431 1431 1433 1438 1443 1450 1455 1460 1464 1468 1472 1477 1482 1486 1490 1494 1498 1502 1507 1511 1515 1518 1522 1525 1528 1531 1534
1415 1412 1414 1416 1416 1417 1418 1422 1425 1427 1433 1447 1437 1443 1442 1428 1429 1428 1428 1431 1435 1441 1447 1453 1458 1463 1467 1471 1475 1480 1483 1487 1491 1495 1499 1503 1507 1511 1515 1519 1522 1525 1528 1531
1419 1411 1409 1411 1416 1416 1420 1433 1448 1455 1457 1454 1438 1439 1432 1418 1418 1421 1426 1429 1434 1439 1445 1451 1456 1461 1465 1469 1473 1477 1480 1484 1488 1492 1496 1501 1505 1508 1512 1515 1519 1522 1525 1528
1424 1423 1408 1408 1414 1418 1421 1427 1449 1463 1465 1456 1446 1446 1426 1413 1415 1419 1425 1429 1432 1438 1444 1449 1454 1459 1463 1467 1471 1475 1478 1481 1486 1490 1494 1498 1502 1506 1509 1513 1516 1519 1523 1526
1414 1417 1401 1402 1406 1411 1420 1423 1420 1434 1443 1453 1450 1439 1423 1413 1416 1419 1424 1429 1432 1437 1442 1447 1452 1457 1461 1465 1469 1472 1476 1479 1483 1487 1491 1495 1499 1503 1507 1510 1514 1517 1521 1524
1402 1414 1403 1400 1405 1407 1409 1414 1422 1432 1451 1459 1450 1446 1441 1427 1421 1422 1423 1427 1432 1436 1440 1446 1451 1455 1460 1464 1467 1470 1473 1477 1481 1485 1489 1493 1496 1500 1504 1508 1511 1515 1519 1522
1399 1412 1410 1405 1410 1412 1413 1417 1419 1424 1429 1448 1457 1454 1433 1429 1425 1423 1424 1426 1430 1435 1440 1444 1449 1454 1458 1462 1465 1468 1472 1475 1479 1482 1486 1491 1494 1498 1501 1505 1509 1512 1516 1519
1397 1405 1414 1409 1400 1401 1407 1413 1418 1434 1437 1433 1444 1447 1424 1425 1425 1425 1425 1427 1430 1434 1438 1443 1448 1452 1456 1460 1464 1467 1470 1473 1476 1480 1484 1488 1492 1495 1499 1502 1506 1509 1513 1516
1398 1408 1423 1423 1418 1410 1411 1411 1414 1420 1428 1433 1441 1444 1423 1426 1426 1426 1426 1428 1431 1434 1438 1442 1447 1451 1455 1459 1462 1465 1468 1472 1475 1478 1482 1486 1489 1493 1496 1500 1503 1507 1510 1514
1398 1407 1417 1430 1428 1422 1420 1415 1413 1419 1429 1431 1431 1432 1427 1427 1429 1428 1429 1430 1432 1435 1438 1442 1446 1450 1454 1457 1460 1464 1467 1470 1473 1476 1480 1484 1487 1491 1494 1498 1501 1505 1508 1512
1399 1409 1409 1411 1414 1417 1418 1416 1414 1418 1419 1426 1427 1429 1429 1429 1429 1431 1431 1431 1433 1435 1438 1441 1445 1449 1452 1456 1459 1462 1465 1468 1471 1474 1478 1481 1485 1488 1492 1495 1499 1503 1506 1510
1402 1410 1412 1416 1412 1414 1418 1414 1412 1414 1415 1419 1422 1428 1426 1427 1430 1431 1432 1433 1434 1436 1438 1441 1444 1447 1451 1454 1457 1460 1463 1466 1469 1472 1475 1479 1483 1486 1490 1493 1497 1500 1504 1507
1405 1413 1419 1422 1414 1417 1425 1416 1413 1413 1413 1419 1427 1429 1426 1429 1430 1432 1434 1435 1436 1438 1439 1442 1444 1446 1449 1452 1455 1457 1460 1463 1466 1470 1474 1477 1480 1484 1487 1491 1494 1498 1501 1505
1410 1415 1418 1420 1424 1439 1422 1409 1411 1416 1417 1418 1422 1425 1427 1431 1433 1435 1436 1437 1438 1439 1440 1442 1443 1445 1447 1450 1453 1456 1458 1461 1464 1467 1471 1474 1477 1481 1484 1488 1491 1494 1498 1501
1406 1414 1421 1424 1429 1427 1419 1414 1415 1421 1425 1423 1426 1428 1432 1433 1434 1437 1439 1439 1440 1440 1441 1441 1442 1443 1445 1447 1450 1452 1455 1458 1461 1464 1467 1471 1474 1478 1481 1484 1487 1490 1494 1497
1406 1412 1421 1425 1434 1438 1430 1418 1416 1422 1432 1430 1430 1433 1435 1435 1438 1442 1442 1441 1441 1441 1441 1441 1441 1442 1443 1444 1447 1449 1451 1454 1457 1460 1463 1467 1471 1474 1477 1480 1483 1487 1490 1493
1413 1417 1421 1426 1432 1430 1426 1422 1420 1435 1441 1436 1435 1437 1438 1440 1442 1444 1443 1442 1442 1441 1441 1440 1440 1440 1440 1442 1444 1445 1448 1450 1453 1457 1460 1464 1467 1470 1473 1477 1480 1483 1486 1490
1413 1417 1423 1426 1434 1440 1429 1427 1433 1438 1438 1438 1439 1440 1441 1442 1442 1443 1443 1443 1442 1441 1440 1438 1438 1438 1439 1439 1441 1442 1444 1447 1450 1453 1456 1460 1463 1466 1469 1473 1476 1479 1482 1485
1412 1414 1417 1426 1435 1435 1433 1436 1438 1438 1439 1440 1441 1441 1442 1443 1443 1443 1443 1442 1441 1441 1439 1438 1438 1438 1438 1438 1439 1440 1442 1445 1447 1450 1453 1456 1459 1463 1466 1468 1472 1475 1478 1481
1418 1417 1420 1428 1432 1434 1437 1438 1439 1440 1441 1441 1441 1442 1443 1444 1444 1444 1443 1442 1441 1441 1439 1438 1438 1437 1437 1438 1438 1439 1440 1442 1445 1447 1450 1453 1456 1459 1462 1466 1468 1471 1474 1476
1422 1422 1425 1430 1433 1436 1439 1441 1442 1443 1443 1442 1443 1444 1445 1445 1445 1445 1444 1443 1442 1442 1441 1440 1439 1438 1438 1438 1438 1438 1439 1441 1443 1445 1448 1450 1453 1457 1459 1462 1465 1468 1470 1472
1424 1426 1429 1432 1434 1437 1442 1443 1444 1444 1445 1445 1446 1446 1447 1447 1448 1447 1447 1446 1445 1444 1443 1442 1441 1440 1440 1439 1439 1439 1439 1440 1441 1444 1446 1449 1452 1455 1457 1460 1463 1466 1468 1470